TimeCST,TemperatureF,Dew PointF,Humidity,Sea Level PressureIn,VisibilityMPH,Wind Direction,Wind SpeedMPH,Gust SpeedMPH,PrecipitationIn,Events,Conditions,WindDirDegrees,DateUTC
12:55 AM,8.1,3.0,80,30.27,10.0,SW,4.6,-,N/A,,Clear,220,2013-01-02 06:55:00
1:55 AM,7.0,3.0,84,30.27,10.0,SSW,4.6,-,N/A,,Clear,200,2013-01-02 07:55:00
2:55 AM,6.1,1.9,83,30.26,10.0,SW,3.5,-,N/A,,Clear,220,2013-01-02 08:55:00
3:55 AM,7.0,3.0,84,30.24,10.0,SW,5.8,-,N/A,,Clear,220,2013-01-02 09:55:00
4:55 AM,7.0,3.0,84,30.23,10.0,SSW,6.9,-,N/A,,Clear,210,2013-01-02 10:55:00
5:55 AM,10.0,5.0,80,30.23,10.0,SSW,6.9,-,N/A,,Clear,210,2013-01-02 11:55:00
6:55 AM,10.9,6.1,81,30.23,10.0,SW,9.2,-,N/A,,Clear,220,2013-01-02 12:55:00
7:55 AM,12.0,6.1,77,30.22,9.0,SSW,9.2,-,N/A,,Clear,210,2013-01-02 13:55:00
8:55 AM,15.1,9.0,77,30.22,9.0,SW,9.2,-,N/A,,Clear,220,2013-01-02 14:55:00
9:55 AM,19.0,12.0,74,30.21,10.0,SW,8.1,-,N/A,,Clear,220,2013-01-02 15:55:00
10:55 AM,21.9,14.0,72,30.21,10.0,SSW,11.5,-,N/A,,Clear,210,2013-01-02 16:55:00
11:55 AM,25.0,17.1,72,30.17,10.0,SW,10.4,-,N/A,,Clear,220,2013-01-02 17:55:00
12:55 PM,28.9,19.0,67,30.16,10.0,SW,11.5,-,N/A,,Clear,230,2013-01-02 18:55:00
1:55 PM,30.0,19.9,66,30.14,10.0,SW,12.7,-,N/A,,Clear,230,2013-01-02 19:55:00
2:55 PM,30.9,21.0,67,30.13,10.0,SW,12.7,18.4,N/A,,Clear,230,2013-01-02 20:55:00
3:55 PM,30.0,21.0,69,30.15,10.0,SW,10.4,-,N/A,,Clear,220,2013-01-02 21:55:00
4:55 PM,28.0,21.0,75,30.16,10.0,SW,5.8,-,N/A,,Scattered Clouds,220,2013-01-02 22:55:00
5:55 PM,28.0,21.0,75,30.17,10.0,SW,6.9,-,N/A,,Overcast,220,2013-01-02 23:55:00
6:55 PM,28.0,21.0,75,30.19,10.0,WSW,5.8,-,N/A,,Overcast,240,2013-01-03 00:55:00
7:55 PM,27.0,21.0,78,30.21,10.0,WSW,5.8,-,N/A,,Overcast,240,2013-01-03 01:55:00
8:19 PM,26.6,21.2,80,30.15,10.0,WSW,4.6,-,N/A,,Overcast,250,2013-01-03 02:19:00
8:55 PM,28.0,21.0,75,30.21,10.0,West,5.8,-,N/A,,Overcast,260,2013-01-03 02:55:00
9:55 PM,27.0,21.0,78,30.22,10.0,West,4.6,-,N/A,,Partly Cloudy,260,2013-01-03 03:55:00
10:29 PM,26.6,21.2,80,30.18,10.0,West,6.9,-,N/A,,Mostly Cloudy,270,2013-01-03 04:29:00
10:55 PM,27.0,21.0,78,30.24,10.0,West,9.2,-,N/A,,Overcast,260,2013-01-03 04:55:00
11:55 PM,26.1,21.0,81,30.23,10.0,West,6.9,-,N/A,,Mostly Cloudy,260,2013-01-03 05:55:00